Location: Berlise
(49.6641°N, 4.1077°E)
Time: 01:20:18
(UTC+00:00)

Spot 2 - Pass Details

Date: 27 January 2021
Orbit: 569 x 774 km, 98.8° (Epoch: 28 February)

Event Time Altitude Azimuth Distance (km) Brightness Sun altitude
Rises 06:12:26 0° 14° (NNE) 2,788 7.4 -11.4°
Reaches altitude 10° 06:14:34 10° 13° (NNE) 1,885 6.5 -11.0°
Maximum altitude 06:18:37 78° 287° (WNW) 594 3.8 -10.4°
Drops below altitude 10° 06:22:43 10° 201° (SSW) 1,905 6.5 -9.8°
Sets 06:24:53 0° 200° (SSW) 2,821 7.4 -9.4°
